Time,TemperatureF,DewpointF,PressureIn,WindDirection,WindDirectionDegrees,WindSpeedMPH,WindSpeedGustMPH,Humidity,HourlyPrecipIn,Conditions,Clouds,dailyrainin,SoftwareType,DateUTC
2013-04-04 00:01:00,49.0,46.0,29.95,SSE,159,0.0,0.0,90,0.00,,,0.00,,2013-04-04 07:01:00,
2013-04-04 00:11:00,49.0,46.0,29.95,SSE,159,0.0,0.0,90,0.00,,,0.00,,2013-04-04 07:11:00,
2013-04-04 00:21:00,49.0,46.0,29.93,SSE,159,0.0,0.0,90,0.00,,,0.00,,2013-04-04 07:21:00,
2013-04-04 00:32:00,49.0,46.0,29.95,SSE,159,0.0,3.0,90,0.00,,,0.00,,2013-04-04 07:32:00,
2013-04-04 00:42:00,49.0,46.0,29.95,SSE,159,0.0,3.0,90,0.00,,,0.00,,2013-04-04 07:42:00,
2013-04-04 00:52:00,49.0,46.0,29.95,SE,131,0.0,0.0,91,0.00,,,0.00,,2013-04-04 07:52:00,
2013-04-04 01:02:00,49.0,46.0,29.95,SW,236,0.0,2.0,90,0.00,,,0.00,,2013-04-04 08:02:00,
2013-04-04 01:11:00,49.0,46.0,29.95,SW,236,0.0,2.0,90,0.00,,,0.00,,2013-04-04 08:11:00,
2013-04-04 01:22:00,50.0,47.0,29.95,West,281,0.0,4.0,91,0.00,,,0.00,,2013-04-04 08:22:00,
2013-04-04 01:32:00,50.0,47.0,29.95,West,281,0.0,4.0,91,0.00,,,0.00,,2013-04-04 08:32:00,
2013-04-04 01:42:00,50.0,47.0,29.95,West,281,0.0,4.0,91,0.00,,,0.00,,2013-04-04 08:42:00,
2013-04-04 01:52:00,50.0,47.0,29.96,SW,215,0.0,0.0,91,0.00,,,0.00,,2013-04-04 08:52:00,
2013-04-04 02:02:00,50.0,47.0,29.95,SW,215,0.0,0.0,91,0.02,,,0.02,,2013-04-04 09:02:00,
2013-04-04 02:12:00,50.0,47.0,29.95,SW,215,0.0,0.0,91,0.02,,,0.02,,2013-04-04 09:12:00,
2013-04-04 02:22:00,50.0,47.0,29.95,SW,215,0.0,0.0,91,0.00,,,0.04,,2013-04-04 09:22:00,
2013-04-04 02:32:00,50.0,47.0,29.93,SW,215,0.0,0.0,91,0.03,,,0.07,,2013-04-04 09:32:00,
2013-04-04 02:42:00,50.0,47.0,29.93,SW,215,0.0,0.0,91,0.03,,,0.07,,2013-04-04 09:42:00,
2013-04-04 02:52:00,50.0,47.0,29.93,SW,215,0.0,0.0,91,0.06,,,0.10,,2013-04-04 09:52:00,
2013-04-04 03:03:00,50.0,48.0,29.92,SW,215,0.0,0.0,92,0.11,,,0.15,,2013-04-04 10:03:00,
2013-04-04 03:12:00,50.0,48.0,29.92,SW,215,0.0,0.0,92,0.11,,,0.15,,2013-04-04 10:12:00,
2013-04-04 03:23:00,50.0,48.0,29.93,SW,215,0.0,0.0,92,0.00,,,0.18,,2013-04-04 10:23:00,
2013-04-04 03:32:00,50.0,48.0,29.93,SW,215,0.0,0.0,92,0.02,,,0.20,,2013-04-04 10:32:00,
2013-04-04 03:42:00,50.0,48.0,29.93,SW,215,0.0,0.0,92,0.02,,,0.20,,2013-04-04 10:42:00,
2013-04-04 03:52:00,50.0,48.0,29.93,SW,215,0.0,0.0,92,0.04,,,0.22,,2013-04-04 10:52:00,
2013-04-04 04:02:00,50.0,48.0,29.93,SW,215,0.0,0.0,92,0.07,,,0.25,,2013-04-04 11:02:00,
2013-04-04 04:12:00,50.0,48.0,29.93,SW,215,0.0,0.0,92,0.07,,,0.25,,2013-04-04 11:12:00,
2013-04-04 04:21:00,50.0,48.0,29.93,SW,215,0.0,0.0,92,0.09,,,0.27,,2013-04-04 11:21:00,
2013-04-04 04:32:00,50.0,48.0,29.93,SW,215,0.0,0.0,92,0.06,,,0.33,,2013-04-04 11:32:00,
2013-04-04 04:42:00,50.0,48.0,29.93,SW,215,0.0,0.0,92,0.06,,,0.33,,2013-04-04 11:42:00,
2013-04-04 04:52:00,50.0,48.0,29.93,SW,215,0.0,0.0,92,0.11,,,0.38,,2013-04-04 11:52:00,
2013-04-04 05:02:00,50.0,48.0,29.92,SW,215,0.0,0.0,92,0.17,,,0.44,,2013-04-04 12:02:00,
2013-04-04 05:12:00,50.0,48.0,29.92,SW,215,0.0,0.0,92,0.17,,,0.44,,2013-04-04 12:12:00,
2013-04-04 05:21:00,50.0,48.0,29.93,SW,215,0.0,0.0,92,0.21,,,0.48,,2013-04-04 12:21:00,
2013-04-04 05:32:00,50.0,48.0,29.92,SW,215,0.0,0.0,92,0.06,,,0.54,,2013-04-04 12:32:00,
2013-04-04 05:42:00,50.0,48.0,29.92,SW,215,0.0,0.0,92,0.06,,,0.54,,2013-04-04 12:42:00,
2013-04-04 05:51:00,50.0,48.0,29.92,SW,215,0.0,0.0,92,0.08,,,0.56,,2013-04-04 12:51:00,
2013-04-04 06:01:00,49.0,47.0,29.92,SW,215,0.0,0.0,92,0.14,,,0.62,,2013-04-04 13:01:00,
2013-04-04 06:12:00,49.0,47.0,29.92,SW,215,0.0,0.0,92,0.14,,,0.62,,2013-04-04 13:12:00,
2013-04-04 06:21:00,49.0,47.0,29.92,SW,215,0.0,0.0,92,0.16,,,0.64,,2013-04-04 13:21:00,
2013-04-04 06:31:00,49.0,47.0,29.92,SW,215,0.0,2.0,92,0.02,,,0.66,,2013-04-04 13:31:00,
2013-04-04 06:41:00,49.0,47.0,29.92,SW,215,0.0,2.0,92,0.02,,,0.66,,2013-04-04 13:41:00,
2013-04-04 06:52:00,49.0,47.0,29.93,SW,215,0.0,0.0,93,0.05,,,0.69,,2013-04-04 13:52:00,
2013-04-04 07:02:00,49.0,47.0,29.93,SW,215,0.0,0.0,92,0.11,,,0.75,,2013-04-04 14:02:00,
2013-04-04 07:12:00,49.0,47.0,29.93,SW,215,0.0,0.0,92,0.11,,,0.75,,2013-04-04 14:12:00,
2013-04-04 07:22:00,49.0,47.0,29.93,SW,215,0.0,0.0,93,0.12,,,0.76,,2013-04-04 14:22:00,
2013-04-04 07:32:00,49.0,47.0,29.93,SW,215,0.0,0.0,93,0.00,,,0.76,,2013-04-04 14:32:00,
2013-04-04 07:42:00,49.0,47.0,29.93,SW,215,0.0,0.0,93,0.00,,,0.76,,2013-04-04 14:42:00,
2013-04-04 07:52:00,50.0,48.0,29.94,SW,215,0.0,0.0,93,0.01,,,0.77,,2013-04-04 14:52:00,
2013-04-04 08:01:00,50.0,48.0,29.95,SW,215,0.0,0.0,93,0.03,,,0.79,,2013-04-04 15:01:00,
2013-04-04 08:12:00,50.0,48.0,29.95,SW,215,0.0,0.0,93,0.03,,,0.79,,2013-04-04 15:12:00,
2013-04-04 08:22:00,50.0,48.0,29.95,SW,215,0.0,0.0,94,0.04,,,0.80,,2013-04-04 15:22:00,
2013-04-04 08:32:00,50.0,48.0,29.96,SW,215,0.0,0.0,94,0.02,,,0.82,,2013-04-04 15:32:00,
2013-04-04 08:42:00,50.0,48.0,29.96,SW,215,0.0,0.0,94,0.02,,,0.82,,2013-04-04 15:42:00,
2013-04-04 08:53:00,50.0,48.0,29.96,SW,215,0.0,0.0,94,0.03,,,0.83,,2013-04-04 15:53:00,
2013-04-04 09:02:00,50.0,48.0,29.97,SW,215,0.0,0.0,94,0.04,,,0.84,,2013-04-04 16:02:00,
2013-04-04 09:12:00,50.0,48.0,29.97,SW,215,0.0,0.0,94,0.04,,,0.84,,2013-04-04 16:12:00,
2013-04-04 09:22:00,50.0,48.0,29.96,SW,216,0.0,0.0,94,0.06,,,0.86,,2013-04-04 16:22:00,
2013-04-04 09:32:00,51.0,49.0,29.98,SW,216,0.0,0.0,94,0.02,,,0.88,,2013-04-04 16:32:00,
2013-04-04 09:42:00,51.0,49.0,29.98,SW,216,0.0,0.0,94,0.02,,,0.88,,2013-04-04 16:42:00,
2013-04-04 09:53:00,51.0,49.0,29.98,SW,216,0.0,0.0,94,0.04,,,0.90,,2013-04-04 16:53:00,
2013-04-04 10:02:00,51.0,49.0,29.98,SW,216,0.0,0.0,94,0.07,,,0.93,,2013-04-04 17:02:00,
2013-04-04 10:22:00,52.0,50.0,29.98,SW,216,0.0,0.0,94,0.00,,,0.94,,2013-04-04 17:22:00,
2013-04-04 10:32:00,52.0,50.0,29.98,SW,216,0.0,0.0,94,0.01,,,0.95,,2013-04-04 17:32:00,
2013-04-04 10:42:00,52.0,50.0,29.98,SW,216,0.0,0.0,94,0.01,,,0.95,,2013-04-04 17:42:00,
2013-04-04 10:51:00,53.0,51.0,29.98,SW,216,0.0,0.0,94,0.03,,,0.97,,2013-04-04 17:51:00,
2013-04-04 11:02:00,54.0,53.0,29.99,SW,216,0.0,0.0,95,0.05,,,0.99,,2013-04-04 18:02:00,
2013-04-04 11:12:00,54.0,53.0,29.99,SW,216,0.0,0.0,95,0.05,,,0.99,,2013-04-04 18:12:00,
2013-04-04 11:22:00,54.0,53.0,29.99,SW,216,0.0,0.0,95,0.05,,,0.99,,2013-04-04 18:22:00,
2013-04-04 11:32:00,55.0,54.0,29.99,South,176,0.0,2.0,95,0.01,,,1.01,,2013-04-04 18:32:00,
2013-04-04 11:42:00,55.0,54.0,29.99,South,176,0.0,2.0,95,0.01,,,1.01,,2013-04-04 18:42:00,
2013-04-04 11:52:00,56.0,55.0,29.99,SSE,159,0.0,3.0,95,0.02,,,1.02,,2013-04-04 18:52:00,
2013-04-04 12:02:00,56.0,55.0,29.99,ENE,66,0.0,5.0,95,0.03,,,1.03,,2013-04-04 19:02:00,
2013-04-04 12:12:00,56.0,55.0,29.99,ENE,66,0.0,5.0,95,0.03,,,1.03,,2013-04-04 19:12:00,
2013-04-04 12:21:00,57.0,56.0,29.99,South,186,0.0,5.0,95,0.03,,,1.03,,2013-04-04 19:21:00,
2013-04-04 12:31:00,57.0,56.0,29.99,South,190,0.0,7.0,95,0.00,,,1.03,,2013-04-04 19:31:00,
2013-04-04 12:42:00,57.0,56.0,29.99,South,190,0.0,7.0,95,0.00,,,1.03,,2013-04-04 19:42:00,
2013-04-04 12:52:00,57.0,56.0,29.99,South,190,0.0,7.0,95,0.00,,,1.03,,2013-04-04 19:52:00,
2013-04-04 13:02:00,57.0,56.0,30.00,SE,133,0.0,5.0,95,0.00,,,1.03,,2013-04-04 20:02:00,
2013-04-04 13:12:00,57.0,56.0,30.00,SE,133,0.0,5.0,95,0.00,,,1.03,,2013-04-04 20:12:00,
2013-04-04 13:22:00,58.0,57.0,29.99,South,179,1.0,6.0,95,0.00,,,1.03,,2013-04-04 20:22:00,
2013-04-04 13:32:00,58.0,56.0,30.00,South,190,1.0,5.0,94,0.00,,,1.03,,2013-04-04 20:32:00,
2013-04-04 13:42:00,58.0,56.0,30.00,South,190,1.0,5.0,94,0.00,,,1.03,,2013-04-04 20:42:00,
2013-04-04 13:52:00,58.0,57.0,30.00,SSE,152,0.0,3.0,95,0.00,,,1.03,,2013-04-04 20:52:00,
2013-04-04 14:02:00,57.0,55.0,30.00,SSW,212,0.0,4.0,94,0.00,,,1.03,,2013-04-04 21:02:00,
2013-04-04 14:11:00,57.0,55.0,30.00,SSW,212,0.0,4.0,94,0.00,,,1.03,,2013-04-04 21:11:00,
2013-04-04 14:21:00,57.0,55.0,30.00,SSW,212,0.0,4.0,94,0.00,,,1.03,,2013-04-04 21:21:00,
2013-04-04 14:32:00,57.0,55.0,30.00,SSE,154,0.0,5.0,94,0.00,,,1.03,,2013-04-04 21:32:00,
2013-04-04 14:42:00,57.0,55.0,30.00,SSE,154,0.0,5.0,94,0.00,,,1.03,,2013-04-04 21:42:00,
2013-04-04 14:52:00,58.0,56.0,30.00,SSW,202,1.0,6.0,94,0.00,,,1.03,,2013-04-04 21:52:00,
2013-04-04 15:03:00,58.0,56.0,30.00,SSW,202,1.0,6.0,94,0.00,,,1.03,,2013-04-04 22:03:00,
2013-04-04 15:12:00,58.0,56.0,30.00,SSW,202,1.0,6.0,94,0.00,,,1.03,,2013-04-04 22:12:00,
2013-04-04 15:22:00,57.0,55.0,30.01,SSW,205,1.0,4.0,94,0.00,,,1.03,,2013-04-04 22:22:00,
2013-04-04 15:32:00,57.0,55.0,30.01,South,189,1.0,5.0,93,0.00,,,1.03,,2013-04-04 22:32:00,
2013-04-04 15:43:00,57.0,55.0,30.01,South,189,1.0,5.0,93,0.00,,,1.03,,2013-04-04 22:43:00,
2013-04-04 15:53:00,58.0,56.0,30.01,SSW,201,2.0,5.0,93,0.00,,,1.03,,2013-04-04 22:53:00,
2013-04-04 16:02:00,57.0,55.0,30.01,SSW,205,1.0,6.0,92,0.00,,,1.03,,2013-04-04 23:02:00,
2013-04-04 16:11:00,57.0,55.0,30.01,SSW,205,1.0,6.0,92,0.00,,,1.03,,2013-04-04 23:11:00,
2013-04-04 16:21:00,57.0,55.0,30.01,SW,233,0.0,7.0,92,0.00,,,1.03,,2013-04-04 23:21:00,
2013-04-04 16:31:00,57.0,54.0,30.03,South,176,1.0,7.0,91,0.00,,,1.03,,2013-04-04 23:31:00,
2013-04-04 16:42:00,57.0,54.0,30.03,South,176,1.0,7.0,91,0.00,,,1.03,,2013-04-04 23:42:00,
2013-04-04 16:52:00,57.0,54.0,30.01,SSE,165,0.0,5.0,91,0.00,,,1.03,,2013-04-04 23:52:00,
2013-04-04 17:01:00,57.0,55.0,30.01,SSE,154,0.0,3.0,92,0.00,,,1.03,,2013-04-05 00:01:00,
2013-04-04 17:22:00,57.0,55.0,30.03,South,178,0.0,3.0,92,0.00,,,1.03,,2013-04-05 00:22:00,
2013-04-04 17:32:00,57.0,55.0,30.02,SSW,196,0.0,2.0,92,0.00,,,1.03,,2013-04-05 00:32:00,
2013-04-04 17:42:00,57.0,55.0,30.02,SSW,196,0.0,2.0,92,0.00,,,1.03,,2013-04-05 00:42:00,
2013-04-04 17:52:00,57.0,55.0,30.00,SSW,208,0.0,2.0,92,0.00,,,1.03,,2013-04-05 00:52:00,
2013-04-04 18:02:00,57.0,54.0,30.02,SSE,164,0.0,5.0,91,0.00,,,1.03,,2013-04-05 01:02:00,
2013-04-04 18:12:00,57.0,54.0,30.02,SSE,164,0.0,5.0,91,0.00,,,1.03,,2013-04-05 01:12:00,
2013-04-04 18:22:00,57.0,54.0,30.01,WSW,251,0.0,3.0,91,0.00,,,1.03,,2013-04-05 01:22:00,
2013-04-04 18:32:00,56.0,53.0,30.00,SSW,195,0.0,2.0,91,0.00,,,1.03,,2013-04-05 01:32:00,
2013-04-04 18:42:00,56.0,53.0,30.00,SSW,195,0.0,2.0,91,0.00,,,1.03,,2013-04-05 01:42:00,
2013-04-04 18:53:00,56.0,53.0,30.02,SSW,195,0.0,3.0,91,0.00,,,1.03,,2013-04-05 01:53:00,
2013-04-04 19:02:00,56.0,53.0,30.01,South,171,0.0,2.0,91,0.00,,,1.03,,2013-04-05 02:02:00,
2013-04-04 19:11:00,56.0,53.0,30.01,South,171,0.0,2.0,91,0.00,,,1.03,,2013-04-05 02:11:00,
2013-04-04 19:21:00,56.0,53.0,30.01,South,171,0.0,2.0,91,0.00,,,1.03,,2013-04-05 02:21:00,
2013-04-04 19:31:00,56.0,54.0,30.00,SSW,208,0.0,1.0,92,0.00,,,1.03,,2013-04-05 02:31:00,
2013-04-04 19:42:00,56.0,54.0,30.00,SSW,208,0.0,1.0,92,0.00,,,1.03,,2013-04-05 02:42:00,
2013-04-04 19:52:00,56.0,54.0,30.00,SSW,208,0.0,1.0,92,0.00,,,1.03,,2013-04-05 02:52:00,
2013-04-04 20:02:00,55.0,53.0,30.00,SSW,208,0.0,0.0,92,0.00,,,1.03,,2013-04-05 03:02:00,
2013-04-04 20:11:00,55.0,53.0,30.00,SSW,208,0.0,0.0,92,0.00,,,1.03,,2013-04-05 03:11:00,
2013-04-04 20:21:00,55.0,53.0,30.00,SSW,205,0.0,0.0,92,0.00,,,1.03,,2013-04-05 03:21:00,
2013-04-04 20:32:00,55.0,53.0,30.01,SSW,202,0.0,0.0,92,0.00,,,1.03,,2013-04-05 03:32:00,
2013-04-04 20:42:00,55.0,53.0,30.01,SSW,202,0.0,0.0,92,0.00,,,1.03,,2013-04-05 03:42:00,
2013-04-04 20:53:00,55.0,53.0,30.00,SSW,202,0.0,0.0,92,0.00,,,1.03,,2013-04-05 03:53:00,
2013-04-04 21:02:00,55.0,53.0,30.00,SSW,202,0.0,0.0,92,0.00,,,1.03,,2013-04-05 04:02:00,
2013-04-04 21:12:00,55.0,53.0,30.00,SSW,202,0.0,0.0,92,0.00,,,1.03,,2013-04-05 04:12:00,
2013-04-04 21:22:00,54.0,52.0,30.01,SSW,202,0.0,0.0,92,0.00,,,1.03,,2013-04-05 04:22:00,
2013-04-04 21:32:00,55.0,53.0,30.02,SSW,202,0.0,0.0,93,0.00,,,1.03,,2013-04-05 04:32:00,
2013-04-04 21:42:00,55.0,53.0,30.02,SSW,202,0.0,0.0,93,0.00,,,1.03,,2013-04-05 04:42:00,
2013-04-04 21:52:00,55.0,53.0,30.02,SSW,202,0.0,0.0,93,0.00,,,1.03,,2013-04-05 04:52:00,
2013-04-04 22:02:00,55.0,53.0,30.05,SSW,202,0.0,0.0,93,0.00,,,1.03,,2013-04-05 05:02:00,
2013-04-04 22:12:00,55.0,53.0,30.05,SSW,202,0.0,0.0,93,0.00,,,1.03,,2013-04-05 05:12:00,
2013-04-04 22:21:00,55.0,53.0,30.05,SSW,202,0.0,0.0,93,0.00,,,1.03,,2013-04-05 05:21:00,
2013-04-04 22:32:00,55.0,53.0,30.03,SSW,202,0.0,0.0,93,0.00,,,1.03,,2013-04-05 05:32:00,
2013-04-04 22:42:00,55.0,53.0,30.03,SSW,202,0.0,0.0,93,0.00,,,1.03,,2013-04-05 05:42:00,
2013-04-04 22:51:00,55.0,53.0,30.03,SSW,202,0.0,0.0,93,0.00,,,1.03,,2013-04-05 05:51:00,
2013-04-04 23:02:00,55.0,53.0,30.03,SSW,202,0.0,0.0,93,0.00,,,1.03,,2013-04-05 06:02:00,
2013-04-04 23:12:00,55.0,53.0,30.03,SSW,202,0.0,0.0,93,0.00,,,1.03,,2013-04-05 06:12:00,
2013-04-04 23:22:00,55.0,53.0,30.04,SSW,202,0.0,0.0,94,0.00,,,1.03,,2013-04-05 06:22:00,
2013-04-04 23:32:00,55.0,53.0,30.04,SSW,202,0.0,0.0,94,0.00,,,1.03,,2013-04-05 06:32:00,
2013-04-04 23:42:00,55.0,53.0,30.04,SSW,202,0.0,0.0,94,0.00,,,1.03,,2013-04-05 06:42:00,
2013-04-04 23:52:00,55.0,53.0,30.04,SSW,202,0.0,0.0,93,0.00,,,1.03,,2013-04-05 06:52:00,